Time,TemperatureF,DewpointF,PressureIn,WindDirection,WindDirectionDegrees,WindSpeedMPH,WindSpeedGustMPH,Humidity,HourlyPrecipIn,Conditions,Clouds,dailyrainin,SoftwareType,DateUTC
2013-12-03 00:14:00,34.7,32.0,29.57,SSE,155,0.0,-999.0,91,-99.99,,,0.00,weatherlink.com 1.10,2013-12-03 06:14:00,
2013-12-03 00:29:00,34.6,32.0,29.56,SSE,165,5.0,-999.0,91,-99.99,,,0.00,weatherlink.com 1.10,2013-12-03 06:29:00,
2013-12-03 00:44:00,34.6,32.0,29.55,SSE,155,6.0,-999.0,91,-99.99,,,0.00,weatherlink.com 1.10,2013-12-03 06:44:00,
2013-12-03 00:59:00,34.6,32.0,29.55,SSE,157,0.0,-999.0,91,-99.99,,,0.00,weatherlink.com 1.10,2013-12-03 06:59:00,
2013-12-03 01:14:00,34.6,32.0,29.55,SSE,157,0.0,-999.0,91,-99.99,,,0.00,weatherlink.com 1.10,2013-12-03 07:14:00,
2013-12-03 01:29:00,34.4,32.0,29.55,SSE,157,0.0,-999.0,91,-99.99,,,0.00,weatherlink.com 1.10,2013-12-03 07:29:00,
2013-12-03 01:44:00,34.3,32.0,29.56,SSE,157,0.0,-999.0,91,-99.99,,,0.00,weatherlink.com 1.10,2013-12-03 07:44:00,
2013-12-03 01:59:00,34.3,32.0,29.57,SSE,157,0.0,-999.0,91,-99.99,,,0.00,weatherlink.com 1.10,2013-12-03 07:59:00,
2013-12-03 02:14:00,34.3,32.0,29.58,SSE,157,0.0,-999.0,91,-99.99,,,0.00,weatherlink.com 1.10,2013-12-03 08:14:00,
2013-12-03 02:29:00,34.3,32.0,29.59,SSE,157,0.0,-999.0,91,-99.99,,,0.00,weatherlink.com 1.10,2013-12-03 08:29:00,
2013-12-03 02:44:00,34.4,32.0,29.59,SSE,157,1.0,-999.0,91,-99.99,,,0.00,weatherlink.com 1.10,2013-12-03 08:44:00,
2013-12-03 02:59:00,34.4,32.0,29.60,SSE,157,0.0,-999.0,91,-99.99,,,0.00,weatherlink.com 1.10,2013-12-03 08:59:00,
2013-12-03 03:14:00,34.6,33.0,29.59,SSE,157,2.0,-999.0,92,-99.99,,,0.00,weatherlink.com 1.10,2013-12-03 09:14:00,
2013-12-03 03:29:00,34.6,33.0,29.59,SSE,157,0.0,-999.0,92,-99.99,,,0.00,weatherlink.com 1.10,2013-12-03 09:29:00,
2013-12-03 03:44:00,34.6,33.0,29.59,SSE,157,0.0,-999.0,92,-99.99,,,0.00,weatherlink.com 1.10,2013-12-03 09:44:00,
2013-12-03 03:59:00,34.6,33.0,29.59,SSE,157,0.0,-999.0,92,-99.99,,,0.00,weatherlink.com 1.10,2013-12-03 09:59:00,
2013-12-03 04:14:00,34.6,33.0,29.59,SSE,157,0.0,-999.0,92,-99.99,,,0.00,weatherlink.com 1.10,2013-12-03 10:14:00,
2013-12-03 04:29:00,34.4,32.0,29.59,SSE,157,0.0,-999.0,92,-99.99,,,0.00,weatherlink.com 1.10,2013-12-03 10:29:00,
2013-12-03 04:44:00,34.4,32.0,29.59,SSE,157,0.0,-999.0,92,-99.99,,,0.00,weatherlink.com 1.10,2013-12-03 10:44:00,
2013-12-03 04:59:00,34.4,32.0,29.60,SSE,157,0.0,-999.0,92,-99.99,,,0.00,weatherlink.com 1.10,2013-12-03 10:59:00,
2013-12-03 05:14:00,34.6,33.0,29.61,SSE,157,0.0,-999.0,93,-99.99,,,0.00,weatherlink.com 1.10,2013-12-03 11:14:00,
2013-12-03 05:29:00,34.6,33.0,29.61,SSE,157,0.0,-999.0,93,-99.99,,,0.00,weatherlink.com 1.10,2013-12-03 11:29:00,
2013-12-03 05:44:00,34.4,33.0,29.61,SSE,157,0.0,-999.0,93,-99.99,,,0.00,weatherlink.com 1.10,2013-12-03 11:44:00,
2013-12-03 05:59:00,34.3,33.0,29.60,SSE,157,0.0,-999.0,93,-99.99,,,0.00,weatherlink.com 1.10,2013-12-03 11:59:00,
2013-12-03 06:14:00,34.1,32.0,29.61,SSE,157,0.0,-999.0,93,-99.99,,,0.00,weatherlink.com 1.10,2013-12-03 12:14:00,
2013-12-03 06:29:00,34.1,32.0,29.61,SSE,157,0.0,-999.0,93,-99.99,,,0.00,weatherlink.com 1.10,2013-12-03 12:29:00,
2013-12-03 06:44:00,34.0,32.0,29.61,SSE,157,0.0,-999.0,93,-99.99,,,0.00,weatherlink.com 1.10,2013-12-03 12:44:00,
2013-12-03 06:59:00,33.8,32.0,29.61,SSE,157,0.0,-999.0,93,-99.99,,,0.00,weatherlink.com 1.10,2013-12-03 12:59:00,
2013-12-03 07:14:00,33.8,32.0,29.61,SSE,157,0.0,-999.0,94,-99.99,,,0.00,weatherlink.com 1.10,2013-12-03 13:14:00,
2013-12-03 07:29:00,34.1,33.0,29.61,SSE,157,0.0,-999.0,94,-99.99,,,0.00,weatherlink.com 1.10,2013-12-03 13:29:00,
2013-12-03 07:44:00,33.8,32.0,29.62,SSE,157,0.0,-999.0,94,-99.99,,,0.00,weatherlink.com 1.10,2013-12-03 13:44:00,
2013-12-03 07:59:00,34.1,33.0,29.62,SSE,157,0.0,-999.0,94,-99.99,,,0.00,weatherlink.com 1.10,2013-12-03 13:59:00,
2013-12-03 08:14:00,34.3,33.0,29.62,SSE,157,0.0,-999.0,95,-99.99,,,0.00,weatherlink.com 1.10,2013-12-03 14:14:00,
2013-12-03 08:29:00,34.4,33.0,29.63,SSE,157,0.0,-999.0,95,-99.99,,,0.00,weatherlink.com 1.10,2013-12-03 14:29:00,
2013-12-03 08:44:00,34.6,33.0,29.64,SE,141,0.0,-999.0,95,-99.99,,,0.00,weatherlink.com 1.10,2013-12-03 14:44:00,
2013-12-03 08:59:00,34.7,34.0,29.65,SE,132,1.0,-999.0,95,-99.99,,,0.01,weatherlink.com 1.10,2013-12-03 14:59:00,
2013-12-03 09:14:00,34.7,34.0,29.65,ESE,115,1.0,-999.0,95,-99.99,,,0.01,weatherlink.com 1.10,2013-12-03 15:14:00,
2013-12-03 09:29:00,34.7,34.0,29.65,ESE,110,0.0,-999.0,95,-99.99,,,0.01,weatherlink.com 1.10,2013-12-03 15:29:00,
2013-12-03 09:44:00,34.7,34.0,29.65,ESE,108,0.0,-999.0,96,-99.99,,,0.01,weatherlink.com 1.10,2013-12-03 15:44:00,
2013-12-03 09:59:00,34.7,34.0,29.67,ESE,107,3.0,-999.0,96,-99.99,,,0.01,weatherlink.com 1.10,2013-12-03 15:59:00,
2013-12-03 10:14:00,34.7,34.0,29.67,ESE,105,0.0,-999.0,96,-99.99,,,0.01,weatherlink.com 1.10,2013-12-03 16:14:00,
2013-12-03 10:29:00,34.7,34.0,29.67,ESE,105,3.0,-999.0,96,-99.99,,,0.01,weatherlink.com 1.10,2013-12-03 16:29:00,
2013-12-03 10:44:00,34.7,34.0,29.67,SE,125,3.0,-999.0,96,-99.99,,,0.01,weatherlink.com 1.10,2013-12-03 16:44:00,
2013-12-03 10:59:00,34.7,34.0,29.68,ESE,120,2.0,-999.0,96,-99.99,,,0.01,weatherlink.com 1.10,2013-12-03 16:59:00,
2013-12-03 11:14:00,34.7,34.0,29.68,ESE,108,0.0,-999.0,96,-99.99,,,0.01,weatherlink.com 1.10,2013-12-03 17:14:00,
2013-12-03 11:29:00,34.6,34.0,29.67,ESE,103,1.0,-999.0,96,-99.99,,,0.01,weatherlink.com 1.10,2013-12-03 17:29:00,
2013-12-03 11:44:00,34.4,33.0,29.67,East,96,2.0,-999.0,96,-99.99,,,0.02,weatherlink.com 1.10,2013-12-03 17:44:00,
2013-12-03 11:59:00,34.0,33.0,29.67,NNE,26,1.0,-999.0,96,-99.99,,,0.02,weatherlink.com 1.10,2013-12-03 17:59:00,
2013-12-03 12:14:00,33.5,33.0,29.67,East,101,3.0,-999.0,96,-99.99,,,0.03,weatherlink.com 1.10,2013-12-03 18:14:00,
2013-12-03 12:29:00,33.2,32.0,29.67,ENE,78,0.0,-999.0,96,-99.99,,,0.04,weatherlink.com 1.10,2013-12-03 18:29:00,
2013-12-03 12:44:00,32.9,32.0,29.67,ENE,78,0.0,-999.0,96,-99.99,,,0.04,weatherlink.com 1.10,2013-12-03 18:44:00,
2013-12-03 12:59:00,32.9,32.0,29.67,ENE,77,2.0,-999.0,96,-99.99,,,0.05,weatherlink.com 1.10,2013-12-03 18:59:00,
2013-12-03 13:14:00,32.8,32.0,29.67,ENE,72,2.0,-999.0,96,-99.99,,,0.05,weatherlink.com 1.10,2013-12-03 19:14:00,
2013-12-03 13:29:00,32.8,32.0,29.66,ENE,75,0.0,-999.0,96,-99.99,,,0.05,weatherlink.com 1.10,2013-12-03 19:29:00,
2013-12-03 13:44:00,32.8,32.0,29.66,ENE,75,0.0,-999.0,96,-99.99,,,0.06,weatherlink.com 1.10,2013-12-03 19:44:00,
2013-12-03 13:59:00,32.9,32.0,29.66,ENE,75,0.0,-999.0,96,-99.99,,,0.07,weatherlink.com 1.10,2013-12-03 19:59:00,
2013-12-03 14:14:00,33.1,32.0,29.66,East,84,0.0,-999.0,96,-99.99,,,0.07,weatherlink.com 1.10,2013-12-03 20:14:00,
2013-12-03 14:29:00,33.1,32.0,29.67,ENE,64,0.0,-999.0,96,-99.99,,,0.07,weatherlink.com 1.10,2013-12-03 20:29:00,
2013-12-03 14:44:00,33.2,32.0,29.66,East,98,0.0,-999.0,96,-99.99,,,0.07,weatherlink.com 1.10,2013-12-03 20:44:00,
2013-12-03 14:59:00,33.2,32.0,29.66,ENE,68,0.0,-999.0,96,-99.99,,,0.08,weatherlink.com 1.10,2013-12-03 20:59:00,
2013-12-03 15:14:00,33.2,32.0,29.66,ENE,76,0.0,-999.0,96,-99.99,,,0.08,weatherlink.com 1.10,2013-12-03 21:14:00,
2013-12-03 15:29:00,33.2,32.0,29.66,ENE,61,0.0,-999.0,96,-99.99,,,0.08,weatherlink.com 1.10,2013-12-03 21:29:00,
2013-12-03 15:44:00,33.2,32.0,29.67,ENE,70,0.0,-999.0,96,-99.99,,,0.08,weatherlink.com 1.10,2013-12-03 21:44:00,
2013-12-03 15:59:00,33.4,32.0,29.67,NE,51,2.0,-999.0,96,-99.99,,,0.08,weatherlink.com 1.10,2013-12-03 21:59:00,
2013-12-03 16:14:00,33.4,32.0,29.68,ENE,60,0.0,-999.0,96,-99.99,,,0.08,weatherlink.com 1.10,2013-12-03 22:14:00,
2013-12-03 16:29:00,33.4,32.0,29.68,NE,37,1.0,-999.0,96,-99.99,,,0.08,weatherlink.com 1.10,2013-12-03 22:29:00,
2013-12-03 16:44:00,33.4,32.0,29.68,ENE,78,0.0,-999.0,96,-99.99,,,0.08,weatherlink.com 1.10,2013-12-03 22:44:00,
2013-12-03 16:59:00,33.2,32.0,29.68,ENE,77,2.0,-999.0,96,-99.99,,,0.08,weatherlink.com 1.10,2013-12-03 22:59:00,
2013-12-03 17:14:00,33.2,32.0,29.69,East,94,0.0,-999.0,96,-99.99,,,0.08,weatherlink.com 1.10,2013-12-03 23:14:00,
2013-12-03 17:29:00,33.2,32.0,29.70,NE,46,0.0,-999.0,96,-99.99,,,0.08,weatherlink.com 1.10,2013-12-03 23:29:00,
2013-12-03 17:44:00,33.2,32.0,29.71,East,101,0.0,-999.0,96,-99.99,,,0.08,weatherlink.com 1.10,2013-12-03 23:44:00,
2013-12-03 17:59:00,33.2,32.0,29.72,NE,53,0.0,-999.0,96,-99.99,,,0.09,weatherlink.com 1.10,2013-12-03 23:59:00,
2013-12-03 18:14:00,33.1,32.0,29.72,NE,39,0.0,-999.0,96,-99.99,,,0.09,weatherlink.com 1.10,2013-12-04 00:14:00,
2013-12-03 18:29:00,33.1,32.0,29.72,ESE,102,0.0,-999.0,96,-99.99,,,0.09,weatherlink.com 1.10,2013-12-04 00:29:00,
2013-12-03 18:45:00,33.1,32.0,29.73,East,84,0.0,-999.0,96,-99.99,,,0.09,weatherlink.com 1.10,2013-12-04 00:45:00,
2013-12-03 19:00:00,32.9,32.0,29.74,East,101,0.0,-999.0,96,-99.99,,,0.09,weatherlink.com 1.10,2013-12-04 01:00:00,
2013-12-03 19:14:00,32.8,32.0,29.75,NE,43,0.0,-999.0,96,-99.99,,,0.09,weatherlink.com 1.10,2013-12-04 01:14:00,
2013-12-03 19:29:00,32.7,32.0,29.74,NE,41,0.0,-999.0,96,-99.99,,,0.09,weatherlink.com 1.10,2013-12-04 01:29:00,
2013-12-03 19:44:00,32.7,32.0,29.74,NE,53,2.0,-999.0,96,-99.99,,,0.09,weatherlink.com 1.10,2013-12-04 01:44:00,
2013-12-03 19:59:00,32.5,32.0,29.74,ENE,60,0.0,-999.0,96,-99.99,,,0.09,weatherlink.com 1.10,2013-12-04 01:59:00,
2013-12-03 20:14:00,32.5,32.0,29.73,ENE,59,0.0,-999.0,96,-99.99,,,0.09,weatherlink.com 1.10,2013-12-04 02:14:00,
2013-12-03 20:29:00,32.5,32.0,29.73,ENE,58,2.0,-999.0,96,-99.99,,,0.09,weatherlink.com 1.10,2013-12-04 02:29:00,
2013-12-03 20:44:00,32.5,32.0,29.73,East,92,3.0,-999.0,96,-99.99,,,0.09,weatherlink.com 1.10,2013-12-04 02:44:00,
2013-12-03 20:59:00,32.4,31.0,29.71,NE,38,1.0,-999.0,96,-99.99,,,0.09,weatherlink.com 1.10,2013-12-04 02:59:00,
2013-12-03 21:14:00,32.4,31.0,29.74,ENE,72,0.0,-999.0,96,-99.99,,,0.09,weatherlink.com 1.10,2013-12-04 03:14:00,
2013-12-03 21:29:00,32.4,31.0,29.74,NE,52,2.0,-999.0,96,-99.99,,,0.09,weatherlink.com 1.10,2013-12-04 03:29:00,
2013-12-03 21:44:00,32.4,31.0,29.75,East,84,4.0,-999.0,96,-99.99,,,0.09,weatherlink.com 1.10,2013-12-04 03:44:00,
2013-12-03 21:59:00,32.4,31.0,29.75,ENE,60,3.0,-999.0,96,-99.99,,,0.09,weatherlink.com 1.10,2013-12-04 03:59:00,
2013-12-03 22:14:00,32.2,31.0,29.73,NE,53,0.0,-999.0,96,-99.99,,,0.10,weatherlink.com 1.10,2013-12-04 04:14:00,
2013-12-03 22:29:00,32.2,31.0,29.74,ENE,78,3.0,-999.0,96,-99.99,,,0.10,weatherlink.com 1.10,2013-12-04 04:29:00,
2013-12-03 22:44:00,32.1,31.0,29.75,ENE,63,2.0,-999.0,96,-99.99,,,0.10,weatherlink.com 1.10,2013-12-04 04:44:00,
2013-12-03 23:14:00,31.9,31.0,29.75,NE,49,0.0,-999.0,96,-99.99,,,0.10,weatherlink.com 1.10,2013-12-04 05:14:00,
2013-12-03 23:29:00,31.8,31.0,29.77,ENE,61,1.0,-999.0,96,-99.99,,,0.10,weatherlink.com 1.10,2013-12-04 05:29:00,
2013-12-03 23:44:00,31.6,31.0,29.76,ENE,72,2.0,-999.0,96,-99.99,,,0.10,weatherlink.com 1.10,2013-12-04 05:44:00,
2013-12-03 23:59:00,31.5,31.0,29.75,NE,56,3.0,-999.0,96,-99.99,,,0.10,weatherlink.com 1.10,2013-12-04 05:59:00,